Flag for Germany Weather past 2 weeks in Fürth, Bavaria, Germany

Now
63 °F

Passing clouds.


Feels Like: 63 °F
Forecast: 48 / 74 °F
Wind: 6 mph from Northeast

Location: Nuernberg


UV Index: 3 (Moderate)

Visibility: N/A


Pressure: 29.98 "Hg

Humidity: 59%

Dew point: 48 °F

Location of FürthLocation

Historic Weather in Fürth

°F

Fürth temperature yesterday

Maximum temperature yesterday: 72 °F (at 4:20 PM)
Minimum temperature yesterday: 37 °F (at 6:20 AM)
Average temperature yesterday: 56 °F

Past Weeks' High & Low Weather Summary

 TemperatureHumidityPressure
High73 °F (Apr 24, 2:50 PM)100% (Apr 16, 6:20 AM)30.36 "Hg (Apr 16, 6:20 AM)
Low27 °F (Apr 17, 6:20 AM)28% (Apr 17, 2:50 PM)29.62 "Hg (Apr 21, 11:20 AM)
Average50 °F69%30.00 "Hg
* Reported Apr 9 8:20 PM — Apr 24 8:50 PM, Fürth, Weather by CustomWeather, © 2014

Note: Actual official high and low records may vary slightly from our data, if they occured in-between our weather recording intervals... More about our weather records

Advertising

Historic Weather Conditions — Data for Previous 24 hours

 ConditionsComfort  
Time TempWeatherWind HumidityBarometerVisibility
8:50 PM
Apr 24
64 °FPassing clouds.7 mph56%29.98 "HgN/A
8:20 PM64 °FSunny.2 mph49%29.98 "Hg10 mi
7:50 PM68 °FPassing clouds.5 mph40%29.98 "HgN/A
7:20 PM70 °FPassing clouds.6 mph38%29.98 "HgN/A
6:50 PM70 °FPassing clouds.7 mph35%29.98 "HgN/A
6:20 PM72 °FPassing clouds.9 mph36%29.98 "HgN/A
5:50 PM72 °FSunny.7 mph33%29.98 "Hg10 mi
5:20 PM72 °FSunny.8 mph33%29.98 "Hg10 mi
4:50 PM72 °FSunny.2 mph31%29.98 "Hg10 mi
4:20 PM72 °FPassing clouds.5 mph33%30.01 "HgN/A
3:50 PM70 °FSunny.5 mph38%30.01 "Hg10 mi
3:20 PM72 °FPassing clouds.7 mph36%30.01 "HgN/A
2:50 PM73 °FPassing clouds.10 mph36%30.04 "HgN/A
2:20 PM72 °FPassing clouds.5 mph33%30.04 "HgN/A
1:50 PM70 °FPassing clouds.7 mph38%30.04 "HgN/A
1:20 PM70 °FSunny.2 mph40%30.04 "Hg10 mi
12:50 PM68 °FSunny.3 mph46%30.07 "Hg10 mi
12:20 PM68 °FPassing clouds.6 mph46%30.07 "HgN/A
11:50 AM68 °FPassing clouds.8 mph43%30.07 "HgN/A
11:20 AM68 °FPassing clouds.6 mph49%30.09 "HgN/A
10:50 AM64 °FPassing clouds.6 mph60%30.09 "HgN/A
10:20 AM63 °FPassing clouds.7 mph59%30.09 "HgN/A
9:20 AM57 °FSunny.2 mph72%30.09 "Hg10 mi
8:50 AM54 °FSunny.2 mph77%30.09 "Hg10 mi
8:20 AM52 °FPassing clouds.3 mph82%30.09 "HgN/A
7:50 AM48 °FSunny.1 mph87%30.09 "Hg10 mi
7:20 AM45 °FFog.1 mph93%30.09 "HgN/A
6:50 AM43 °FFog.1 mph93%30.09 "HgN/A
6:20 AM43 °FFog.1 mph100%30.09 "HgN/A
5:50 AM43 °FFog.1 mph93%30.09 "HgN/A
5:20 AM45 °FClear.1 mph87%30.09 "Hg10 mi
4:50 AM45 °FClear.1 mph87%30.09 "Hg10 mi
4:20 AM45 °FClear.1 mph93%30.09 "Hg10 mi
3:50 AM46 °FClear.1 mph87%30.09 "Hg10 mi
3:20 AM46 °FClear.1 mph87%30.09 "Hg10 mi
2:50 AM48 °FClear.1 mph87%30.09 "Hg10 mi
2:20 AM48 °FClear.1 mph87%30.09 "Hg10 mi
1:50 AM48 °FClear.1 mph87%30.09 "Hg10 mi
1:20 AM50 °FClear.1 mph76%30.09 "Hg10 mi
12:50 AM52 °FClear.2 mph77%30.09 "Hg10 mi
12:20 AM50 °FPassing clouds.3 mph82%30.09 "HgN/A
11:50 PM
Apr 23
52 °FPassing clouds.5 mph77%30.09 "HgN/A
11:20 PM54 °FClear.3 mph72%30.09 "Hg10 mi
10:50 PM54 °FClear.1 mph72%30.07 "Hg10 mi
10:20 PM57 °FClear.1 mph59%30.07 "Hg10 mi
Weather by CustomWeather, © 2014

See weather overview